Time,TemperatureF,DewpointF,PressureIn,WindDirection,WindDirectionDegrees,WindSpeedMPH,WindSpeedGustMPH,Humidity,HourlyPrecipIn,Conditions,Clouds,dailyrainin,SoftwareType,DateUTC
2013-02-24 01:00:00,36.0,34.0,29.80,NNE,19,4.0,9.0,94,-99.99,,,-99.99,,2013-02-24 06:00:00,
2013-02-24 01:22:00,36.0,34.0,29.80,NNE,19,4.0,9.0,94,-99.99,,,-99.99,,2013-02-24 06:22:00,
2013-02-24 01:32:00,36.0,34.0,29.80,NNE,19,4.0,9.0,94,-99.99,,,-99.99,,2013-02-24 06:32:00,
2013-02-24 01:42:00,36.0,34.0,29.80,NNE,19,4.0,9.0,94,-99.99,,,-99.99,,2013-02-24 06:42:00,
2013-02-24 01:52:00,36.0,34.0,29.80,NNE,19,4.0,9.0,94,-99.99,,,-99.99,,2013-02-24 06:52:00,
2013-02-24 02:00:00,36.0,34.0,29.77,NNE,30,3.0,7.0,94,-99.99,,,-99.99,,2013-02-24 07:00:00,
2013-02-24 02:22:00,36.0,34.0,29.77,NNE,30,3.0,7.0,94,-99.99,,,-99.99,,2013-02-24 07:22:00,
2013-02-24 02:32:00,36.0,34.0,29.77,NNE,30,3.0,7.0,94,-99.99,,,-99.99,,2013-02-24 07:32:00,
2013-02-24 02:42:00,36.0,34.0,29.77,NNE,30,3.0,7.0,94,-99.99,,,-99.99,,2013-02-24 07:42:00,
2013-02-24 02:52:00,36.0,34.0,29.77,NNE,30,3.0,7.0,94,-99.99,,,-99.99,,2013-02-24 07:52:00,
2013-02-24 03:00:00,36.0,35.0,29.77,North,3,4.0,6.0,94,-99.99,,,-99.99,,2013-02-24 08:00:00,
2013-02-24 03:22:00,36.0,35.0,29.77,North,3,4.0,6.0,94,-99.99,,,-99.99,,2013-02-24 08:22:00,
2013-02-24 03:32:00,36.0,35.0,29.77,North,3,4.0,6.0,94,-99.99,,,-99.99,,2013-02-24 08:32:00,
2013-02-24 03:42:00,36.0,35.0,29.77,North,3,4.0,6.0,94,-99.99,,,-99.99,,2013-02-24 08:42:00,
2013-02-24 03:54:00,36.0,35.0,29.77,North,3,4.0,6.0,94,-99.99,,,-99.99,,2013-02-24 08:54:00,
2013-02-24 04:00:00,36.0,35.0,29.77,NNW,340,0.0,5.0,94,-99.99,,,-99.99,,2013-02-24 09:00:00,
2013-02-24 04:22:00,36.0,35.0,29.77,NNW,340,0.0,5.0,94,-99.99,,,-99.99,,2013-02-24 09:22:00,
2013-02-24 04:32:00,36.0,35.0,29.77,NNW,340,0.0,5.0,94,-99.99,,,-99.99,,2013-02-24 09:32:00,
2013-02-24 04:42:00,36.0,35.0,29.77,NNW,340,0.0,5.0,94,-99.99,,,-99.99,,2013-02-24 09:42:00,
2013-02-24 04:52:00,36.0,35.0,29.77,NNW,340,0.0,5.0,94,-99.99,,,-99.99,,2013-02-24 09:52:00,
2013-02-24 05:00:00,36.0,34.0,29.74,NNE,15,3.0,5.0,94,-99.99,,,-99.99,,2013-02-24 10:00:00,
2013-02-24 05:22:00,36.0,34.0,29.74,NNE,15,3.0,5.0,94,-99.99,,,-99.99,,2013-02-24 10:22:00,
2013-02-24 05:32:00,36.0,34.0,29.74,NNE,15,3.0,5.0,94,-99.99,,,-99.99,,2013-02-24 10:32:00,
2013-02-24 05:42:00,36.0,34.0,29.74,NNE,15,3.0,5.0,94,-99.99,,,-99.99,,2013-02-24 10:42:00,
2013-02-24 05:52:00,36.0,34.0,29.74,NNE,15,3.0,5.0,94,-99.99,,,-99.99,,2013-02-24 10:52:00,
2013-02-24 06:00:00,36.0,34.0,29.74,NE,46,2.0,6.0,94,-99.99,,,-99.99,,2013-02-24 11:00:00,
2013-02-24 06:22:00,36.0,34.0,29.74,NE,46,2.0,6.0,94,-99.99,,,-99.99,,2013-02-24 11:22:00,
2013-02-24 06:32:00,36.0,34.0,29.74,NE,46,2.0,6.0,94,-99.99,,,-99.99,,2013-02-24 11:32:00,
2013-02-24 06:42:00,36.0,34.0,29.74,NE,46,2.0,6.0,94,-99.99,,,-99.99,,2013-02-24 11:42:00,
2013-02-24 06:53:00,36.0,34.0,29.74,NE,46,2.0,6.0,94,-99.99,,,-99.99,,2013-02-24 11:53:00,
2013-02-24 07:00:00,35.0,33.0,29.74,NW,320,0.0,6.0,94,-99.99,,,-99.99,,2013-02-24 12:00:00,
2013-02-24 07:22:00,35.0,33.0,29.74,NW,320,0.0,6.0,94,-99.99,,,-99.99,,2013-02-24 12:22:00,
2013-02-24 07:33:00,35.0,33.0,29.74,NW,320,0.0,6.0,94,-99.99,,,-99.99,,2013-02-24 12:33:00,
2013-02-24 07:46:00,35.0,33.0,29.74,NW,320,0.0,6.0,94,-99.99,,,-99.99,,2013-02-24 12:46:00,
2013-02-24 08:00:00,37.0,35.0,29.74,ENE,73,2.0,4.0,94,-99.99,,,-99.99,,2013-02-24 13:00:00,
2013-02-24 08:27:00,37.0,35.0,29.74,ENE,73,2.0,4.0,94,-99.99,,,-99.99,,2013-02-24 13:27:00,
2013-02-24 08:35:00,37.0,35.0,29.74,ENE,73,2.0,4.0,94,-99.99,,,-99.99,,2013-02-24 13:35:00,
2013-02-24 08:45:00,37.0,35.0,29.74,ENE,73,2.0,4.0,94,-99.99,,,-99.99,,2013-02-24 13:45:00,
2013-02-24 08:55:00,37.0,35.0,29.74,ENE,73,2.0,4.0,94,-99.99,,,-99.99,,2013-02-24 13:55:00,
2013-02-24 09:00:00,39.0,37.0,29.77,NW,312,2.0,4.0,92,-99.99,,,-99.99,,2013-02-24 14:00:00,
2013-02-24 09:25:00,39.0,37.0,29.77,NW,312,2.0,4.0,92,-99.99,,,-99.99,,2013-02-24 14:25:00,
2013-02-24 09:35:00,39.0,37.0,29.77,NW,312,2.0,4.0,92,-99.99,,,-99.99,,2013-02-24 14:35:00,
2013-02-24 09:45:00,39.0,37.0,29.77,NW,312,2.0,4.0,92,-99.99,,,-99.99,,2013-02-24 14:45:00,
2013-02-24 09:55:00,39.0,37.0,29.77,NW,312,2.0,4.0,92,-99.99,,,-99.99,,2013-02-24 14:55:00,
2013-02-24 10:00:00,41.0,36.0,29.74,NW,326,6.0,11.0,84,-99.99,,,-99.99,,2013-02-24 15:00:00,
2013-02-24 10:24:00,41.0,36.0,29.74,NW,326,6.0,11.0,84,-99.99,,,-99.99,,2013-02-24 15:24:00,
2013-02-24 10:32:00,41.0,36.0,29.74,NW,326,6.0,11.0,84,-99.99,,,-99.99,,2013-02-24 15:32:00,
2013-02-24 10:42:00,41.0,36.0,29.74,NW,326,6.0,11.0,84,-99.99,,,-99.99,,2013-02-24 15:42:00,
2013-02-24 10:53:00,41.0,36.0,29.74,NW,326,6.0,11.0,84,-99.99,,,-99.99,,2013-02-24 15:53:00,
2013-02-24 11:00:00,42.0,36.0,29.74,North,349,6.0,14.0,79,-99.99,,,-99.99,,2013-02-24 16:00:00,
2013-02-24 11:22:00,42.0,36.0,29.74,North,349,6.0,14.0,79,-99.99,,,-99.99,,2013-02-24 16:22:00,
2013-02-24 11:32:00,42.0,36.0,29.74,North,349,6.0,14.0,79,-99.99,,,-99.99,,2013-02-24 16:32:00,
2013-02-24 11:42:00,42.0,36.0,29.74,North,349,6.0,14.0,79,-99.99,,,-99.99,,2013-02-24 16:42:00,
2013-02-24 11:52:00,42.0,36.0,29.74,North,349,6.0,14.0,79,-99.99,,,-99.99,,2013-02-24 16:52:00,
2013-02-24 12:00:00,43.0,35.0,29.74,NNW,343,4.0,14.0,74,-99.99,,,-99.99,,2013-02-24 17:00:00,
2013-02-24 12:32:00,43.0,35.0,29.74,NNW,343,4.0,14.0,74,-99.99,,,-99.99,,2013-02-24 17:32:00,
2013-02-24 12:42:00,43.0,35.0,29.74,NNW,343,4.0,14.0,74,-99.99,,,-99.99,,2013-02-24 17:42:00,
2013-02-24 12:53:00,43.0,35.0,29.74,NNW,343,4.0,14.0,74,-99.99,,,-99.99,,2013-02-24 17:53:00,
2013-02-24 13:00:00,44.0,35.0,29.74,NW,320,2.0,15.0,69,-99.99,,,-99.99,,2013-02-24 18:00:00,
2013-02-24 13:22:00,44.0,35.0,29.74,NW,320,2.0,15.0,69,-99.99,,,-99.99,,2013-02-24 18:22:00,
2013-02-24 13:32:00,44.0,35.0,29.74,NW,320,2.0,15.0,69,-99.99,,,-99.99,,2013-02-24 18:32:00,
2013-02-24 13:42:00,44.0,35.0,29.74,NW,320,2.0,15.0,69,-99.99,,,-99.99,,2013-02-24 18:42:00,
2013-02-24 13:52:00,44.0,35.0,29.74,NW,320,2.0,15.0,69,-99.99,,,-99.99,,2013-02-24 18:52:00,
2013-02-24 14:00:00,44.0,34.0,29.74,North,0,4.0,14.0,67,-99.99,,,-99.99,,2013-02-24 19:00:00,
2013-02-24 14:22:00,44.0,34.0,29.74,North,0,4.0,14.0,67,-99.99,,,-99.99,,2013-02-24 19:22:00,
2013-02-24 14:32:00,44.0,34.0,29.74,North,0,4.0,14.0,67,-99.99,,,-99.99,,2013-02-24 19:32:00,
2013-02-24 14:42:00,44.0,34.0,29.74,North,0,4.0,14.0,67,-99.99,,,-99.99,,2013-02-24 19:42:00,
2013-02-24 14:52:00,44.0,34.0,29.74,North,0,4.0,14.0,67,-99.99,,,-99.99,,2013-02-24 19:52:00,
2013-02-24 15:00:00,43.0,27.0,29.74,NNW,345,3.0,18.0,51,-99.99,,,-99.99,,2013-02-24 20:00:00,
2013-02-24 15:22:00,43.0,27.0,29.74,NNW,345,3.0,18.0,51,-99.99,,,-99.99,,2013-02-24 20:22:00,
2013-02-24 15:32:00,43.0,27.0,29.74,NNW,345,3.0,18.0,51,-99.99,,,-99.99,,2013-02-24 20:32:00,
2013-02-24 15:42:00,43.0,27.0,29.74,NNW,345,3.0,18.0,51,-99.99,,,-99.99,,2013-02-24 20:42:00,
2013-02-24 15:52:00,43.0,27.0,29.74,NNW,345,3.0,18.0,51,-99.99,,,-99.99,,2013-02-24 20:52:00,
2013-02-24 16:00:00,42.0,26.0,29.77,West,277,8.0,23.0,53,-99.99,,,-99.99,,2013-02-24 21:00:00,
2013-02-24 16:21:00,42.0,26.0,29.77,West,277,8.0,23.0,53,-99.99,,,-99.99,,2013-02-24 21:21:00,
2013-02-24 16:32:00,42.0,26.0,29.77,West,277,8.0,23.0,53,-99.99,,,-99.99,,2013-02-24 21:32:00,
2013-02-24 16:42:00,42.0,26.0,29.77,West,277,8.0,23.0,53,-99.99,,,-99.99,,2013-02-24 21:42:00,
2013-02-24 16:52:00,42.0,26.0,29.77,West,277,8.0,23.0,53,-99.99,,,-99.99,,2013-02-24 21:52:00,
2013-02-24 17:00:00,39.0,25.0,29.80,NW,314,12.0,25.0,57,-99.99,,,-99.99,,2013-02-24 22:00:00,
2013-02-24 17:22:00,39.0,25.0,29.80,NW,314,12.0,25.0,57,-99.99,,,-99.99,,2013-02-24 22:22:00,
2013-02-24 17:32:00,39.0,25.0,29.80,NW,314,12.0,25.0,57,-99.99,,,-99.99,,2013-02-24 22:32:00,
2013-02-24 17:42:00,39.0,25.0,29.80,NW,314,12.0,25.0,57,-99.99,,,-99.99,,2013-02-24 22:42:00,
2013-02-24 17:52:00,39.0,25.0,29.80,NW,314,12.0,25.0,57,-99.99,,,-99.99,,2013-02-24 22:52:00,
2013-02-24 18:00:00,37.0,22.0,29.83,NW,310,7.0,20.0,54,-99.99,,,-99.99,,2013-02-24 23:00:00,
2013-02-24 18:32:00,37.0,22.0,29.83,NW,310,7.0,20.0,54,-99.99,,,-99.99,,2013-02-24 23:32:00,
2013-02-24 18:42:00,37.0,22.0,29.83,NW,310,7.0,20.0,54,-99.99,,,-99.99,,2013-02-24 23:42:00,
2013-02-24 18:52:00,37.0,22.0,29.83,NW,310,7.0,20.0,54,-99.99,,,-99.99,,2013-02-24 23:52:00,
2013-02-24 19:00:00,37.0,22.0,29.88,NW,309,11.0,21.0,55,-99.99,,,-99.99,,2013-02-25 00:00:00,
2013-02-24 19:22:00,37.0,22.0,29.88,NW,309,11.0,21.0,55,-99.99,,,-99.99,,2013-02-25 00:22:00,
2013-02-24 19:32:00,37.0,22.0,29.88,NW,309,11.0,21.0,55,-99.99,,,-99.99,,2013-02-25 00:32:00,
2013-02-24 19:42:00,37.0,22.0,29.88,NW,309,11.0,21.0,55,-99.99,,,-99.99,,2013-02-25 00:42:00,
2013-02-24 19:52:00,37.0,22.0,29.88,NW,309,11.0,21.0,55,-99.99,,,-99.99,,2013-02-25 00:52:00,
2013-02-24 20:00:00,36.0,22.0,29.88,North,353,9.0,18.0,57,-99.99,,,-99.99,,2013-02-25 01:00:00,
2013-02-24 20:21:00,36.0,22.0,29.88,North,353,9.0,18.0,57,-99.99,,,-99.99,,2013-02-25 01:21:00,
2013-02-24 20:32:00,36.0,22.0,29.88,North,353,9.0,18.0,57,-99.99,,,-99.99,,2013-02-25 01:32:00,
2013-02-24 20:42:00,36.0,22.0,29.88,North,353,9.0,18.0,57,-99.99,,,-99.99,,2013-02-25 01:42:00,
2013-02-24 20:52:00,36.0,22.0,29.88,North,353,9.0,18.0,57,-99.99,,,-99.99,,2013-02-25 01:52:00,
2013-02-24 21:00:00,35.0,21.0,29.91,NW,319,13.0,19.0,57,-99.99,,,-99.99,,2013-02-25 02:00:00,
2013-02-24 21:21:00,35.0,21.0,29.91,NW,319,13.0,19.0,57,-99.99,,,-99.99,,2013-02-25 02:21:00,
2013-02-24 21:32:00,35.0,21.0,29.91,NW,319,13.0,19.0,57,-99.99,,,-99.99,,2013-02-25 02:32:00,
2013-02-24 21:42:00,35.0,21.0,29.91,NW,319,13.0,19.0,57,-99.99,,,-99.99,,2013-02-25 02:42:00,
2013-02-24 21:52:00,35.0,21.0,29.91,NW,319,13.0,19.0,57,-99.99,,,-99.99,,2013-02-25 02:52:00,
2013-02-24 22:00:00,34.0,21.0,29.94,NNE,13,2.0,18.0,59,-99.99,,,-99.99,,2013-02-25 03:00:00,
2013-02-24 22:21:00,34.0,21.0,29.94,NNE,13,2.0,18.0,59,-99.99,,,-99.99,,2013-02-25 03:21:00,
2013-02-24 22:32:00,34.0,21.0,29.94,NNE,13,2.0,18.0,59,-99.99,,,-99.99,,2013-02-25 03:32:00,
2013-02-24 22:42:00,34.0,21.0,29.94,NNE,13,2.0,18.0,59,-99.99,,,-99.99,,2013-02-25 03:42:00,
2013-02-24 22:52:00,34.0,21.0,29.94,NNE,13,2.0,18.0,59,-99.99,,,-99.99,,2013-02-25 03:52:00,
2013-02-24 23:00:00,33.0,21.0,29.94,NW,311,7.0,15.0,59,-99.99,,,-99.99,,2013-02-25 04:00:00,
2013-02-24 23:22:00,33.0,21.0,29.94,NW,311,7.0,15.0,59,-99.99,,,-99.99,,2013-02-25 04:22:00,
2013-02-24 23:32:00,33.0,21.0,29.94,NW,311,7.0,15.0,59,-99.99,,,-99.99,,2013-02-25 04:32:00,
2013-02-24 23:42:00,33.0,21.0,29.94,NW,311,7.0,15.0,59,-99.99,,,-99.99,,2013-02-25 04:42:00,
2013-02-24 23:52:00,33.0,21.0,29.94,NW,311,7.0,15.0,59,-99.99,,,-99.99,,2013-02-25 04:52:00,